owner,sensor,date,latitude,longitude,sea_surface_height_above_sea_level,qcFlag 
COMPS,ioos:station:USF.COMPS:BGC:1,2012-08-01T02:00:00Z,26.4040,-81.8810,-0.177,1111122 
COMPS,ioos:station:USF.COMPS:BGC:1,2012-08-01T02:06:00Z,26.4040,-81.8810,-0.175,1111122 
COMPS,ioos:station:USF.COMPS:BGC:1,2012-08-01T02:12:00Z,26.4040,-81.8810,-0.16,1111122 
COMPS,ioos:station:USF.COMPS:BGC:1,2012-08-01T02:18:00Z,26.4040,-81.8810,-0.153,1111122 
COMPS,ioos:station:USF.COMPS:BGC:1,2012-08-01T02:24:00Z,26.4040,-81.8810,-0.14,1111122 
COMPS,ioos:station:USF.COMPS:BGC:1,2012-08-01T02:30:00Z,26.4040,-81.8810,-0.129,1111122 
COMPS,ioos:station:USF.COMPS:BGC:1,2012-08-01T02:36:00Z,26.4040,-81.8810,-0.115,1111122 
COMPS,ioos:station:USF.COMPS:BGC:1,2012-08-01T02:42:00Z,26.4040,-81.8810,-0.094,1111122 
COMPS,ioos:station:USF.COMPS:BGC:1,2012-08-01T02:48:00Z,26.4040,-81.8810,-0.085,1111122 
COMPS,ioos:station:USF.COMPS:BGC:1,2012-08-01T02:54:00Z,26.4040,-81.8810,-0.076,1111122 
COMPS,ioos:station:USF.COMPS:BGC:1,2012-08-01T03:00:00Z,26.4040,-81.8810,-0.061,1111122 
COMPS,ioos:station:USF.COMPS:BGC:1,2012-08-01T03:06:00Z,26.4040,-81.8810,-0.043,1111122 
COMPS,ioos:station:USF.COMPS:BGC:1,2012-08-01T03:12:00Z,26.4040,-81.8810,-0.033,1111122 
COMPS,ioos:station:USF.COMPS:BGC:1,2012-08-01T03:18:00Z,26.4040,-81.8810,-0.015,1111122 
COMPS,ioos:station:USF.COMPS:BGC:1,2012-08-01T03:24:00Z,26.4040,-81.8810,0.0,1114422 
COMPS,ioos:station:USF.COMPS:BGC:1,2012-08-01T03:30:00Z,26.4040,-81.8810,0.009,1111122 
COMPS,ioos:station:USF.COMPS:BGC:1,2012-08-01T03:36:00Z,26.4040,-81.8810,0.022,1111122 
COMPS,ioos:station:USF.COMPS:BGC:1,2012-08-01T03:42:00Z,26.4040,-81.8810,0.036,1111122 
COMPS,ioos:station:USF.COMPS:BGC:1,2012-08-01T03:48:00Z,26.4040,-81.8810,0.055,1111122 
COMPS,ioos:station:USF.COMPS:BGC:1,2012-08-01T03:54:00Z,26.4040,-81.8810,0.063,1111122 
COMPS,ioos:station:USF.COMPS:BGC:1,2012-08-01T04:00:00Z,26.4040,-81.8810,0.094,1111122 
COMPS,ioos:station:USF.COMPS:BGC:1,2012-08-01T04:06:00Z,26.4040,-81.8810,0.095,1111122 
COMPS,ioos:station:USF.COMPS:BGC:1,2012-08-01T04:12:00Z,26.4040,-81.8810,0.109,1111122 
COMPS,ioos:station:USF.COMPS:BGC:1,2012-08-01T04:18:00Z,26.4040,-81.8810,0.124,1111122 
COMPS,ioos:station:USF.COMPS:BGC:1,2012-08-01T04:24:00Z,26.4040,-81.8810,0.134,1111122 
COMPS,ioos:station:USF.COMPS:BGC:1,2012-08-01T04:30:00Z,26.4040,-81.8810,0.147,1111122 
COMPS,ioos:station:USF.COMPS:BGC:1,2012-08-01T04:36:00Z,26.4040,-81.8810,0.159,1111122 
COMPS,ioos:station:USF.COMPS:BGC:1,2012-08-01T04:42:00Z,26.4040,-81.8810,0.176,1111122 
COMPS,ioos:station:USF.COMPS:BGC:1,2012-08-01T04:48:00Z,26.4040,-81.8810,0.186,1111122 
COMPS,ioos:station:USF.COMPS:BGC:1,2012-08-01T04:54:00Z,26.4040,-81.8810,0.197,1111122 
COMPS,ioos:station:USF.COMPS:BGC:1,2012-08-01T05:00:00Z,26.4040,-81.8810,0.208,1111122 
COMPS,ioos:station:USF.COMPS:BGC:1,2012-08-01T05:06:00Z,26.4040,-81.8810,0.218,1111122 
COMPS,ioos:station:USF.COMPS:BGC:1,2012-08-01T05:12:00Z,26.4040,-81.8810,0.217,1111122 
COMPS,ioos:station:USF.COMPS:BGC:1,2012-08-01T05:18:00Z,26.4040,-81.8810,0.241,1111122 
COMPS,ioos:station:USF.COMPS:BGC:1,2012-08-01T05:24:00Z,26.4040,-81.8810,0.247,1111122 
COMPS,ioos:station:USF.COMPS:BGC:1,2012-08-01T05:30:00Z,26.4040,-81.8810,0.248,1111122 
COMPS,ioos:station:USF.COMPS:BGC:1,2012-08-01T05:36:00Z,26.4040,-81.8810,0.266,1111122 
COMPS,ioos:station:USF.COMPS:BGC:1,2012-08-01T05:42:00Z,26.4040,-81.8810,0.27,1111122 
COMPS,ioos:station:USF.COMPS:BGC:1,2012-08-01T05:48:00Z,26.4040,-81.8810,0.269,1111122 
COMPS,ioos:station:USF.COMPS:BGC:1,2012-08-01T05:54:00Z,26.4040,-81.8810,0.281,1111122 
COMPS,ioos:station:USF.COMPS:BGC:1,2012-08-01T06:00:00Z,26.4040,-81.8810,0.278,1111122 
COMPS,ioos:station:USF.COMPS:BGC:1,2012-08-01T06:06:00Z,26.4040,-81.8810,0.289,1111122 
COMPS,ioos:station:USF.COMPS:BGC:1,2012-08-01T06:12:00Z,26.4040,-81.8810,0.275,1111122 
COMPS,ioos:station:USF.COMPS:BGC:1,2012-08-01T06:18:00Z,26.4040,-81.8810,0.273,1111122 
COMPS,ioos:station:USF.COMPS:BGC:1,2012-08-01T06:24:00Z,26.4040,-81.8810,0.286,1111122 
COMPS,ioos:station:USF.COMPS:BGC:1,2012-08-01T06:30:00Z,26.4040,-81.8810,0.262,1111122 
COMPS,ioos:station:USF.COMPS:BGC:1,2012-08-01T06:36:00Z,26.4040,-81.8810,0.27,1111122 
COMPS,ioos:station:USF.COMPS:BGC:1,2012-08-01T06:42:00Z,26.4040,-81.8810,0.239,1111122 
COMPS,ioos:station:USF.COMPS:BGC:1,2012-08-01T06:48:00Z,26.4040,-81.8810,0.239,1111122 
COMPS,ioos:station:USF.COMPS:BGC:1,2012-08-01T06:54:00Z,26.4040,-81.8810,0.219,1111122 
COMPS,ioos:station:USF.COMPS:BGC:1,2012-08-01T07:00:00Z,26.4040,-81.8810,0.207,1111122 
COMPS,ioos:station:USF.COMPS:BGC:1,2012-08-01T07:06:00Z,26.4040,-81.8810,0.2,1111122 
COMPS,ioos:station:USF.COMPS:BGC:1,2012-08-01T07:12:00Z,26.4040,-81.8810,0.183,1111122 
COMPS,ioos:station:USF.COMPS:BGC:1,2012-08-01T07:18:00Z,26.4040,-81.8810,0.18,1111122 
COMPS,ioos:station:USF.COMPS:BGC:1,2012-08-01T07:24:00Z,26.4040,-81.8810,0.166,1111122 
COMPS,ioos:station:USF.COMPS:BGC:1,2012-08-01T07:30:00Z,26.4040,-81.8810,0.146,1111122 
COMPS,ioos:station:USF.COMPS:BGC:1,2012-08-01T07:36:00Z,26.4040,-81.8810,0.131,1111122 
COMPS,ioos:station:USF.COMPS:BGC:1,2012-08-01T07:42:00Z,26.4040,-81.8810,0.124,1111122 
COMPS,ioos:station:USF.COMPS:BGC:1,2012-08-01T07:48:00Z,26.4040,-81.8810,0.11,1111122 
COMPS,ioos:station:USF.COMPS:BGC:1,2012-08-01T07:54:00Z,26.4040,-81.8810,0.105,1111122 
COMPS,ioos:station:USF.COMPS:BGC:1,2012-08-01T08:00:00Z,26.4040,-81.8810,0.091,1111122 
COMPS,ioos:station:USF.COMPS:BGC:1,2012-08-01T08:06:00Z,26.4040,-81.8810,0.091,1111122 
COMPS,ioos:station:USF.COMPS:BGC:1,2012-08-01T08:12:00Z,26.4040,-81.8810,0.081,1111122 
COMPS,ioos:station:USF.COMPS:BGC:1,2012-08-01T08:18:00Z,26.4040,-81.8810,0.072,1111122 
COMPS,ioos:station:USF.COMPS:BGC:1,2012-08-01T08:24:00Z,26.4040,-81.8810,0.066,1111122 
COMPS,ioos:station:USF.COMPS:BGC:1,2012-08-01T08:30:00Z,26.4040,-81.8810,0.068,1111122 
COMPS,ioos:station:USF.COMPS:BGC:1,2012-08-01T08:36:00Z,26.4040,-81.8810,0.059,1111122 
COMPS,ioos:station:USF.COMPS:BGC:1,2012-08-01T08:42:00Z,26.4040,-81.8810,0.056,1111122 
COMPS,ioos:station:USF.COMPS:BGC:1,2012-08-01T08:48:00Z,26.4040,-81.8810,0.042,1111122 
COMPS,ioos:station:USF.COMPS:BGC:1,2012-08-01T08:54:00Z,26.4040,-81.8810,0.027,1111122 
COMPS,ioos:station:USF.COMPS:BGC:1,2012-08-01T09:00:00Z,26.4040,-81.8810,0.028,1111122 
COMPS,ioos:station:USF.COMPS:BGC:1,2012-08-01T09:06:00Z,26.4040,-81.8810,0.006,1111122 
COMPS,ioos:station:USF.COMPS:BGC:1,2012-08-01T09:12:00Z,26.4040,-81.8810,0.011,1111122 
COMPS,ioos:station:USF.COMPS:BGC:1,2012-08-01T09:18:00Z,26.4040,-81.8810,0.004,1111122 
COMPS,ioos:station:USF.COMPS:BGC:1,2012-08-01T09:24:00Z,26.4040,-81.8810,-0.004,1111122 
COMPS,ioos:station:USF.COMPS:BGC:1,2012-08-01T09:30:00Z,26.4040,-81.8810,-0.003,1111122 
COMPS,ioos:station:USF.COMPS:BGC:1,2012-08-01T09:36:00Z,26.4040,-81.8810,-0.014,1111122 
COMPS,ioos:station:USF.COMPS:BGC:1,2012-08-01T09:42:00Z,26.4040,-81.8810,-0.023,1111122 
COMPS,ioos:station:USF.COMPS:BGC:1,2012-08-01T09:48:00Z,26.4040,-81.8810,-0.024,1111122 
COMPS,ioos:station:USF.COMPS:BGC:1,2012-08-01T09:54:00Z,26.4040,-81.8810,-0.03,1111122 
COMPS,ioos:station:USF.COMPS:BGC:1,2012-08-01T10:00:00Z,26.4040,-81.8810,-0.033,1111122 
COMPS,ioos:station:USF.COMPS:BGC:1,2012-08-01T10:06:00Z,26.4040,-81.8810,-0.047,1111122 
COMPS,ioos:station:USF.COMPS:BGC:1,2012-08-01T10:12:00Z,26.4040,-81.8810,-0.05,1111122 
COMPS,ioos:station:USF.COMPS:BGC:1,2012-08-01T10:18:00Z,26.4040,-81.8810,-0.054,1111122 
COMPS,ioos:station:USF.COMPS:BGC:1,2012-08-01T10:24:00Z,26.4040,-81.8810,-0.062,1111122 
COMPS,ioos:station:USF.COMPS:BGC:1,2012-08-01T10:30:00Z,26.4040,-81.8810,-0.059,1111122 
COMPS,ioos:station:USF.COMPS:BGC:1,2012-08-01T10:36:00Z,26.4040,-81.8810,-0.066,1111122 
COMPS,ioos:station:USF.COMPS:BGC:1,2012-08-01T10:42:00Z,26.4040,-81.8810,-0.059,1111122 
COMPS,ioos:station:USF.COMPS:BGC:1,2012-08-01T10:48:00Z,26.4040,-81.8810,-0.06,1111122 
COMPS,ioos:station:USF.COMPS:BGC:1,2012-08-01T10:54:00Z,26.4040,-81.8810,-0.058,1111122 
COMPS,ioos:station:USF.COMPS:BGC:1,2012-08-01T11:00:00Z,26.4040,-81.8810,-0.05,1111122 
COMPS,ioos:station:USF.COMPS:BGC:1,2012-08-01T11:06:00Z,26.4040,-81.8810,-0.042,1111122 
COMPS,ioos:station:USF.COMPS:BGC:1,2012-08-01T11:12:00Z,26.4040,-81.8810,-0.044,1111122 
COMPS,ioos:station:USF.COMPS:BGC:1,2012-08-01T11:18:00Z,26.4040,-81.8810,-0.043,1111122 
COMPS,ioos:station:USF.COMPS:BGC:1,2012-08-01T11:24:00Z,26.4040,-81.8810,-0.029,1111122 
COMPS,ioos:station:USF.COMPS:BGC:1,2012-08-01T11:30:00Z,26.4040,-81.8810,-0.022,1111122 
COMPS,ioos:station:USF.COMPS:BGC:1,2012-08-01T11:36:00Z,26.4040,-81.8810,-0.006,1111122 
COMPS,ioos:station:USF.COMPS:BGC:1,2012-08-01T11:42:00Z,26.4040,-81.8810,0.01,1111122 
COMPS,ioos:station:USF.COMPS:BGC:1,2012-08-01T11:48:00Z,26.4040,-81.8810,0.011,1111122 
COMPS,ioos:station:USF.COMPS:BGC:1,2012-08-01T11:54:00Z,26.4040,-81.8810,0.014,1111122 
COMPS,ioos:station:USF.COMPS:BGC:1,2012-08-01T12:00:00Z,26.4040,-81.8810,0.032,1111122 
COMPS,ioos:station:USF.COMPS:BGC:1,2012-08-01T12:06:00Z,26.4040,-81.8810,0.03,1111122 
COMPS,ioos:station:USF.COMPS:BGC:1,2012-08-01T12:12:00Z,26.4040,-81.8810,0.048,1111122 
COMPS,ioos:station:USF.COMPS:BGC:1,2012-08-01T12:18:00Z,26.4040,-81.8810,0.065,1111122 
COMPS,ioos:station:USF.COMPS:BGC:1,2012-08-01T12:24:00Z,26.4040,-81.8810,0.082,1111122 
COMPS,ioos:station:USF.COMPS:BGC:1,2012-08-01T12:30:00Z,26.4040,-81.8810,0.088,1111122 
COMPS,ioos:station:USF.COMPS:BGC:1,2012-08-01T12:36:00Z,26.4040,-81.8810,0.114,1111122 
COMPS,ioos:station:USF.COMPS:BGC:1,2012-08-01T12:42:00Z,26.4040,-81.8810,0.128,1111122 
COMPS,ioos:station:USF.COMPS:BGC:1,2012-08-01T12:48:00Z,26.4040,-81.8810,0.136,1111122 
COMPS,ioos:station:USF.COMPS:BGC:1,2012-08-01T12:54:00Z,26.4040,-81.8810,0.148,1111122 
COMPS,ioos:station:USF.COMPS:BGC:1,2012-08-01T15:00:00Z,26.4040,-81.8810,0.426,1111122 
COMPS,ioos:station:USF.COMPS:BGC:1,2012-08-01T15:06:00Z,26.4040,-81.8810,0.436,1111122 
COMPS,ioos:station:USF.COMPS:BGC:1,2012-08-01T15:12:00Z,26.4040,-81.8810,0.451,1111122 
COMPS,ioos:station:USF.COMPS:BGC:1,2012-08-01T15:18:00Z,26.4040,-81.8810,0.458,1111122 
COMPS,ioos:station:USF.COMPS:BGC:1,2012-08-01T15:24:00Z,26.4040,-81.8810,0.474,1111122 
COMPS,ioos:station:USF.COMPS:BGC:1,2012-08-01T15:30:00Z,26.4040,-81.8810,0.482,1111122 
COMPS,ioos:station:USF.COMPS:BGC:1,2012-08-01T15:36:00Z,26.4040,-81.8810,0.48,1111122 
COMPS,ioos:station:USF.COMPS:BGC:1,2012-08-01T15:42:00Z,26.4040,-81.8810,0.491,1111122 
COMPS,ioos:station:USF.COMPS:BGC:1,2012-08-01T15:48:00Z,26.4040,-81.8810,0.501,1111122 
COMPS,ioos:station:USF.COMPS:BGC:1,2012-08-01T15:54:00Z,26.4040,-81.8810,0.508,1111122 
COMPS,ioos:station:USF.COMPS:BGC:1,2012-08-01T16:00:00Z,26.4040,-81.8810,0.51,1111122 
COMPS,ioos:station:USF.COMPS:BGC:1,2012-08-01T16:06:00Z,26.4040,-81.8810,0.513,1111122 
COMPS,ioos:station:USF.COMPS:BGC:1,2012-08-01T16:12:00Z,26.4040,-81.8810,0.522,1111122 
COMPS,ioos:station:USF.COMPS:BGC:1,2012-08-01T16:18:00Z,26.4040,-81.8810,0.522,1111122 
COMPS,ioos:station:USF.COMPS:BGC:1,2012-08-01T16:24:00Z,26.4040,-81.8810,0.538,1111122 
COMPS,ioos:station:USF.COMPS:BGC:1,2012-08-01T16:30:00Z,26.4040,-81.8810,0.545,1111122 
COMPS,ioos:station:USF.COMPS:BGC:1,2012-08-01T16:36:00Z,26.4040,-81.8810,0.548,1111122 
COMPS,ioos:station:USF.COMPS:BGC:1,2012-08-01T16:42:00Z,26.4040,-81.8810,0.547,1111122 
COMPS,ioos:station:USF.COMPS:BGC:1,2012-08-01T16:48:00Z,26.4040,-81.8810,0.547,1111122 
COMPS,ioos:station:USF.COMPS:BGC:1,2012-08-01T16:54:00Z,26.4040,-81.8810,0.539,1111122 
COMPS,ioos:station:USF.COMPS:BGC:1,2012-08-01T17:00:00Z,26.4040,-81.8810,0.534,1111122 
COMPS,ioos:station:USF.COMPS:BGC:1,2012-08-01T17:06:00Z,26.4040,-81.8810,0.54,1111122 
COMPS,ioos:station:USF.COMPS:BGC:1,2012-08-01T17:12:00Z,26.4040,-81.8810,0.536,1111122 
COMPS,ioos:station:USF.COMPS:BGC:1,2012-08-01T17:18:00Z,26.4040,-81.8810,0.526,1111122 
COMPS,ioos:station:USF.COMPS:BGC:1,2012-08-01T17:24:00Z,26.4040,-81.8810,0.528,1111122 
COMPS,ioos:station:USF.COMPS:BGC:1,2012-08-01T17:30:00Z,26.4040,-81.8810,0.51,1111122 
COMPS,ioos:station:USF.COMPS:BGC:1,2012-08-01T17:36:00Z,26.4040,-81.8810,0.493,1111122 
COMPS,ioos:station:USF.COMPS:BGC:1,2012-08-01T17:42:00Z,26.4040,-81.8810,0.486,1111122 
COMPS,ioos:station:USF.COMPS:BGC:1,2012-08-01T17:48:00Z,26.4040,-81.8810,0.478,1111122 
COMPS,ioos:station:USF.COMPS:BGC:1,2012-08-01T17:54:00Z,26.4040,-81.8810,0.452,1111122 
COMPS,ioos:station:USF.COMPS:BGC:1,2012-08-01T18:00:00Z,26.4040,-81.8810,0.438,1111122 
COMPS,ioos:station:USF.COMPS:BGC:1,2012-08-01T18:06:00Z,26.4040,-81.8810,0.423,1111122 
COMPS,ioos:station:USF.COMPS:BGC:1,2012-08-01T18:12:00Z,26.4040,-81.8810,0.416,1111122 
COMPS,ioos:station:USF.COMPS:BGC:1,2012-08-01T18:18:00Z,26.4040,-81.8810,0.41,1111122 
COMPS,ioos:station:USF.COMPS:BGC:1,2012-08-01T18:24:00Z,26.4040,-81.8810,0.385,1111122 
COMPS,ioos:station:USF.COMPS:BGC:1,2012-08-01T18:30:00Z,26.4040,-81.8810,0.372,1111122 
COMPS,ioos:station:USF.COMPS:BGC:1,2012-08-01T18:36:00Z,26.4040,-81.8810,0.357,1111122 
COMPS,ioos:station:USF.COMPS:BGC:1,2012-08-01T18:42:00Z,26.4040,-81.8810,0.331,1111122 
COMPS,ioos:station:USF.COMPS:BGC:1,2012-08-01T18:48:00Z,26.4040,-81.8810,0.32,1111122 
COMPS,ioos:station:USF.COMPS:BGC:1,2012-08-01T18:54:00Z,26.4040,-81.8810,0.307,1111122 
COMPS,ioos:station:USF.COMPS:BGC:1,2012-08-01T19:00:00Z,26.4040,-81.8810,0.3,1111122 
COMPS,ioos:station:USF.COMPS:BGC:1,2012-08-01T19:06:00Z,26.4040,-81.8810,0.28,1111122 
COMPS,ioos:station:USF.COMPS:BGC:1,2012-08-01T19:12:00Z,26.4040,-81.8810,0.26,1111122 
COMPS,ioos:station:USF.COMPS:BGC:1,2012-08-01T19:18:00Z,26.4040,-81.8810,0.253,1111122 
COMPS,ioos:station:USF.COMPS:BGC:1,2012-08-01T19:24:00Z,26.4040,-81.8810,0.233,1111122 
COMPS,ioos:station:USF.COMPS:BGC:1,2012-08-01T19:30:00Z,26.4040,-81.8810,0.217,1111122 
COMPS,ioos:station:USF.COMPS:BGC:1,2012-08-01T19:36:00Z,26.4040,-81.8810,0.198,1111122 
COMPS,ioos:station:USF.COMPS:BGC:1,2012-08-01T19:42:00Z,26.4040,-81.8810,0.189,1111122 
COMPS,ioos:station:USF.COMPS:BGC:1,2012-08-01T19:48:00Z,26.4040,-81.8810,0.177,1111122 
COMPS,ioos:station:USF.COMPS:BGC:1,2012-08-01T19:54:00Z,26.4040,-81.8810,0.154,1111122 
COMPS,ioos:station:USF.COMPS:BGC:1,2012-08-02T02:00:00Z,26.4040,-81.8810,-0.253,1111122 
COMPS,ioos:station:USF.COMPS:BGC:1,2012-08-02T02:06:00Z,26.4040,-81.8810,-0.239,1111122 
COMPS,ioos:station:USF.COMPS:BGC:1,2012-08-02T02:12:00Z,26.4040,-81.8810,-0.227,1111122 
COMPS,ioos:station:USF.COMPS:BGC:1,2012-08-02T02:18:00Z,26.4040,-81.8810,-0.213,1111122 
COMPS,ioos:station:USF.COMPS:BGC:1,2012-08-02T02:24:00Z,26.4040,-81.8810,-0.195,1111122 
COMPS,ioos:station:USF.COMPS:BGC:1,2012-08-02T02:30:00Z,26.4040,-81.8810,-0.174,1111122 
COMPS,ioos:station:USF.COMPS:BGC:1,2012-08-02T02:36:00Z,26.4040,-81.8810,-0.16,1111122 
COMPS,ioos:station:USF.COMPS:BGC:1,2012-08-02T02:42:00Z,26.4040,-81.8810,-0.147,1111122 
COMPS,ioos:station:USF.COMPS:BGC:1,2012-08-02T02:48:00Z,26.4040,-81.8810,-0.124,1111122 
COMPS,ioos:station:USF.COMPS:BGC:1,2012-08-02T02:54:00Z,26.4040,-81.8810,-0.117,1111122 
COMPS,ioos:station:USF.COMPS:BGC:1,2012-08-02T03:00:00Z,26.4040,-81.8810,-0.106,1111122 
COMPS,ioos:station:USF.COMPS:BGC:1,2012-08-02T03:06:00Z,26.4040,-81.8810,-0.089,1111122 
COMPS,ioos:station:USF.COMPS:BGC:1,2012-08-02T03:12:00Z,26.4040,-81.8810,-0.066,1111122 
COMPS,ioos:station:USF.COMPS:BGC:1,2012-08-02T03:18:00Z,26.4040,-81.8810,-0.055,1111122 
COMPS,ioos:station:USF.COMPS:BGC:1,2012-08-02T03:24:00Z,26.4040,-81.8810,-0.04,1111122 
COMPS,ioos:station:USF.COMPS:BGC:1,2012-08-02T03:30:00Z,26.4040,-81.8810,-0.018,1111122 
COMPS,ioos:station:USF.COMPS:BGC:1,2012-08-02T03:36:00Z,26.4040,-81.8810,-0.007,1111122 
COMPS,ioos:station:USF.COMPS:BGC:1,2012-08-02T03:42:00Z,26.4040,-81.8810,0.015,1111122 
COMPS,ioos:station:USF.COMPS:BGC:1,2012-08-02T03:48:00Z,26.4040,-81.8810,0.021,1111122 
COMPS,ioos:station:USF.COMPS:BGC:1,2012-08-02T03:54:00Z,26.4040,-81.8810,0.033,1111122 
COMPS,ioos:station:USF.COMPS:BGC:1,2012-08-02T04:00:00Z,26.4040,-81.8810,0.054,1111122 
COMPS,ioos:station:USF.COMPS:BGC:1,2012-08-02T04:06:00Z,26.4040,-81.8810,0.068,1111122 
COMPS,ioos:station:USF.COMPS:BGC:1,2012-08-02T04:12:00Z,26.4040,-81.8810,0.088,1111122 
COMPS,ioos:station:USF.COMPS:BGC:1,2012-08-02T04:18:00Z,26.4040,-81.8810,0.099,1111122 
COMPS,ioos:station:USF.COMPS:BGC:1,2012-08-02T04:24:00Z,26.4040,-81.8810,0.116,1111122 
COMPS,ioos:station:USF.COMPS:BGC:1,2012-08-02T04:30:00Z,26.4040,-81.8810,0.131,1111122 
COMPS,ioos:station:USF.COMPS:BGC:1,2012-08-02T04:36:00Z,26.4040,-81.8810,0.145,1111122 
COMPS,ioos:station:USF.COMPS:BGC:1,2012-08-02T04:42:00Z,26.4040,-81.8810,0.159,1111122 
COMPS,ioos:station:USF.COMPS:BGC:1,2012-08-02T04:48:00Z,26.4040,-81.8810,0.18,1111122 
COMPS,ioos:station:USF.COMPS:BGC:1,2012-08-02T04:54:00Z,26.4040,-81.8810,0.176,1111122 
COMPS,ioos:station:USF.COMPS:BGC:1,2012-08-02T05:00:00Z,26.4040,-81.8810,0.192,1111122 
COMPS,ioos:station:USF.COMPS:BGC:1,2012-08-02T05:06:00Z,26.4040,-81.8810,0.21,1111122 
COMPS,ioos:station:USF.COMPS:BGC:1,2012-08-02T05:12:00Z,26.4040,-81.8810,0.223,1111122 
COMPS,ioos:station:USF.COMPS:BGC:1,2012-08-02T05:18:00Z,26.4040,-81.8810,0.22,1111122 
COMPS,ioos:station:USF.COMPS:BGC:1,2012-08-02T05:24:00Z,26.4040,-81.8810,0.239,1111122 
COMPS,ioos:station:USF.COMPS:BGC:1,2012-08-02T05:30:00Z,26.4040,-81.8810,0.25,1111122 
COMPS,ioos:station:USF.COMPS:BGC:1,2012-08-02T05:36:00Z,26.4040,-81.8810,0.25,1111122 
COMPS,ioos:station:USF.COMPS:BGC:1,2012-08-02T05:42:00Z,26.4040,-81.8810,0.264,1111122 
COMPS,ioos:station:USF.COMPS:BGC:1,2012-08-02T05:48:00Z,26.4040,-81.8810,0.27,1111122 
COMPS,ioos:station:USF.COMPS:BGC:1,2012-08-02T05:54:00Z,26.4040,-81.8810,0.274,1111122 
COMPS,ioos:station:USF.COMPS:BGC:1,2012-08-02T06:00:00Z,26.4040,-81.8810,0.278,1111122 
COMPS,ioos:station:USF.COMPS:BGC:1,2012-08-02T06:06:00Z,26.4040,-81.8810,0.279,1111122 
COMPS,ioos:station:USF.COMPS:BGC:1,2012-08-02T06:12:00Z,26.4040,-81.8810,0.282,1111122 
COMPS,ioos:station:USF.COMPS:BGC:1,2012-08-02T06:18:00Z,26.4040,-81.8810,0.264,1111122 
COMPS,ioos:station:USF.COMPS:BGC:1,2012-08-02T06:24:00Z,26.4040,-81.8810,0.279,1111122 
COMPS,ioos:station:USF.COMPS:BGC:1,2012-08-02T06:30:00Z,26.4040,-81.8810,0.278,1111122 
COMPS,ioos:station:USF.COMPS:BGC:1,2012-08-02T06:36:00Z,26.4040,-81.8810,0.271,1111122 
COMPS,ioos:station:USF.COMPS:BGC:1,2012-08-02T06:42:00Z,26.4040,-81.8810,0.265,1111122 
COMPS,ioos:station:USF.COMPS:BGC:1,2012-08-02T06:48:00Z,26.4040,-81.8810,0.248,1111122 
COMPS,ioos:station:USF.COMPS:BGC:1,2012-08-02T06:54:00Z,26.4040,-81.8810,0.239,1111122 
COMPS,ioos:station:USF.COMPS:BGC:1,2012-08-02T07:00:00Z,26.4040,-81.8810,0.224,1111122 
COMPS,ioos:station:USF.COMPS:BGC:1,2012-08-02T07:06:00Z,26.4040,-81.8810,0.218,1111122 
COMPS,ioos:station:USF.COMPS:BGC:1,2012-08-02T07:12:00Z,26.4040,-81.8810,0.222,1111122 
COMPS,ioos:station:USF.COMPS:BGC:1,2012-08-02T07:18:00Z,26.4040,-81.8810,0.214,1111122 
COMPS,ioos:station:USF.COMPS:BGC:1,2012-08-02T07:24:00Z,26.4040,-81.8810,0.193,1111122 
COMPS,ioos:station:USF.COMPS:BGC:1,2012-08-02T07:30:00Z,26.4040,-81.8810,0.185,1111122 
COMPS,ioos:station:USF.COMPS:BGC:1,2012-08-02T07:36:00Z,26.4040,-81.8810,0.153,1111122 
COMPS,ioos:station:USF.COMPS:BGC:1,2012-08-02T07:42:00Z,26.4040,-81.8810,0.123,1111122 
COMPS,ioos:station:USF.COMPS:BGC:1,2012-08-02T07:48:00Z,26.4040,-81.8810,0.148,1111122 
COMPS,ioos:station:USF.COMPS:BGC:1,2012-08-02T07:54:00Z,26.4040,-81.8810,0.134,1111122 
COMPS,ioos:station:USF.COMPS:BGC:1,2012-08-02T08:00:00Z,26.4040,-81.8810,0.136,1111122 
COMPS,ioos:station:USF.COMPS:BGC:1,2012-08-02T08:06:00Z,26.4040,-81.8810,0.115,1111122 
COMPS,ioos:station:USF.COMPS:BGC:1,2012-08-02T08:12:00Z,26.4040,-81.8810,0.104,1111122 
COMPS,ioos:station:USF.COMPS:BGC:1,2012-08-02T08:18:00Z,26.4040,-81.8810,0.084,1111122 
COMPS,ioos:station:USF.COMPS:BGC:1,2012-08-02T08:24:00Z,26.4040,-81.8810,0.086,1111122 
COMPS,ioos:station:USF.COMPS:BGC:1,2012-08-02T08:30:00Z,26.4040,-81.8810,0.064,1111122 
COMPS,ioos:station:USF.COMPS:BGC:1,2012-08-02T08:36:00Z,26.4040,-81.8810,0.061,1111122 
COMPS,ioos:station:USF.COMPS:BGC:1,2012-08-02T08:42:00Z,26.4040,-81.8810,0.059,1111122 
COMPS,ioos:station:USF.COMPS:BGC:1,2012-08-02T08:48:00Z,26.4040,-81.8810,0.045,1111122 
COMPS,ioos:station:USF.COMPS:BGC:1,2012-08-02T08:54:00Z,26.4040,-81.8810,0.034,1111122 
COMPS,ioos:station:USF.COMPS:BGC:1,2012-08-02T09:00:00Z,26.4040,-81.8810,0.019,1111122 
COMPS,ioos:station:USF.COMPS:BGC:1,2012-08-02T09:06:00Z,26.4040,-81.8810,0.005,1111122 
COMPS,ioos:station:USF.COMPS:BGC:1,2012-08-02T09:12:00Z,26.4040,-81.8810,-0.003,1111122 
COMPS,ioos:station:USF.COMPS:BGC:1,2012-08-02T09:18:00Z,26.4040,-81.8810,-0.006,1111122 
COMPS,ioos:station:USF.COMPS:BGC:1,2012-08-02T09:24:00Z,26.4040,-81.8810,-0.009,1111122 
COMPS,ioos:station:USF.COMPS:BGC:1,2012-08-02T09:30:00Z,26.4040,-81.8810,-0.014,1111122 
COMPS,ioos:station:USF.COMPS:BGC:1,2012-08-02T09:36:00Z,26.4040,-81.8810,-0.028,1111122 
COMPS,ioos:station:USF.COMPS:BGC:1,2012-08-02T09:42:00Z,26.4040,-81.8810,-0.036,1111122 
COMPS,ioos:station:USF.COMPS:BGC:1,2012-08-02T09:48:00Z,26.4040,-81.8810,-0.033,1111122 
COMPS,ioos:station:USF.COMPS:BGC:1,2012-08-02T09:54:00Z,26.4040,-81.8810,-0.053,1111122 
COMPS,ioos:station:USF.COMPS:BGC:1,2012-08-02T10:00:00Z,26.4040,-81.8810,-0.059,1111122 
COMPS,ioos:station:USF.COMPS:BGC:1,2012-08-02T10:06:00Z,26.4040,-81.8810,-0.057,1111122 
COMPS,ioos:station:USF.COMPS:BGC:1,2012-08-02T10:12:00Z,26.4040,-81.8810,-0.065,1111122 
COMPS,ioos:station:USF.COMPS:BGC:1,2012-08-02T10:18:00Z,26.4040,-81.8810,-0.064,1111122 
COMPS,ioos:station:USF.COMPS:BGC:1,2012-08-02T10:24:00Z,26.4040,-81.8810,-0.073,1111122 
COMPS,ioos:station:USF.COMPS:BGC:1,2012-08-02T10:30:00Z,26.4040,-81.8810,-0.085,1111122 
COMPS,ioos:station:USF.COMPS:BGC:1,2012-08-02T10:36:00Z,26.4040,-81.8810,-0.094,1111122 
COMPS,ioos:station:USF.COMPS:BGC:1,2012-08-02T10:42:00Z,26.4040,-81.8810,-0.088,1111122 
COMPS,ioos:station:USF.COMPS:BGC:1,2012-08-02T10:48:00Z,26.4040,-81.8810,-0.099,1111122 
COMPS,ioos:station:USF.COMPS:BGC:1,2012-08-02T10:54:00Z,26.4040,-81.8810,-0.106,1111122 
COMPS,ioos:station:USF.COMPS:BGC:1,2012-08-02T11:00:00Z,26.4040,-81.8810,-0.109,1111122 
COMPS,ioos:station:USF.COMPS:BGC:1,2012-08-02T11:06:00Z,26.4040,-81.8810,-0.125,1111122 
COMPS,ioos:station:USF.COMPS:BGC:1,2012-08-02T11:12:00Z,26.4040,-81.8810,-0.126,1111122 
COMPS,ioos:station:USF.COMPS:BGC:1,2012-08-02T11:18:00Z,26.4040,-81.8810,-0.116,1111122 
COMPS,ioos:station:USF.COMPS:BGC:1,2012-08-02T11:24:00Z,26.4040,-81.8810,-0.128,1111122 
COMPS,ioos:station:USF.COMPS:BGC:1,2012-08-02T11:30:00Z,26.4040,-81.8810,-0.126,1111122 
COMPS,ioos:station:USF.COMPS:BGC:1,2012-08-02T11:36:00Z,26.4040,-81.8810,-0.129,1111122 
COMPS,ioos:station:USF.COMPS:BGC:1,2012-08-02T11:42:00Z,26.4040,-81.8810,-0.123,1111122 
COMPS,ioos:station:USF.COMPS:BGC:1,2012-08-02T11:48:00Z,26.4040,-81.8810,-0.128,1111122 
COMPS,ioos:station:USF.COMPS:BGC:1,2012-08-02T11:54:00Z,26.4040,-81.8810,-0.132,1111122 
COMPS,ioos:station:USF.COMPS:BGC:1,2012-08-02T12:00:00Z,26.4040,-81.8810,-0.116,1111122 
COMPS,ioos:station:USF.COMPS:BGC:1,2012-08-02T12:06:00Z,26.4040,-81.8810,-0.101,1111122 
COMPS,ioos:station:USF.COMPS:BGC:1,2012-08-02T12:12:00Z,26.4040,-81.8810,-0.098,1111122 
COMPS,ioos:station:USF.COMPS:BGC:1,2012-08-02T12:18:00Z,26.4040,-81.8810,-0.088,1111122 
COMPS,ioos:station:USF.COMPS:BGC:1,2012-08-02T12:24:00Z,26.4040,-81.8810,-0.091,1111122 
COMPS,ioos:station:USF.COMPS:BGC:1,2012-08-02T12:30:00Z,26.4040,-81.8810,-0.097,1111122 
COMPS,ioos:station:USF.COMPS:BGC:1,2012-08-02T12:36:00Z,26.4040,-81.8810,-0.075,1111122 
COMPS,ioos:station:USF.COMPS:BGC:1,2012-08-02T12:42:00Z,26.4040,-81.8810,-0.071,1111122 
COMPS,ioos:station:USF.COMPS:BGC:1,2012-08-02T12:48:00Z,26.4040,-81.8810,-0.047,1111122 
COMPS,ioos:station:USF.COMPS:BGC:1,2012-08-02T12:54:00Z,26.4040,-81.8810,-0.03,1111122 
COMPS,ioos:station:USF.COMPS:BGC:1,2012-08-02T13:00:00Z,26.4040,-81.8810,-0.024,1111122 